Regional Weather Roundup
Issued by NWS Cleveland, OH

Home | Current Version | Previous Version | Graphics & Text | Print | Product List | Glossary On
Versions: 1 2 3 4 5 6 7 8 9 10 11 12 13 14 15 16 17 18 19 20 21 22 23 24 25 26 27 28 29 30 31 32 33 34 35 36 37 38 39 40 41 42 43 44 45 46 47 48 49 50
000
ASUS41 KCLE 260212
RWRCLE
OHIO REGIONAL WEATHER ROUNDUP
NATIONAL WEATHER SERVICE WILMINGTON, OH
1000 PM EDT THU AUG 25 2016

NOTE: "FAIR" INDICATES FEW OR NO CLOUDS BELOW 12,000 FEET WITH NO
SIGNIFICANT WEATHER AND/OR OBSTRUCTIONS TO VISIBILITY.

OHZ001>008-015>018-024>027-034-035-043-044-260300-
   NORTHWEST OHIO

CITY           SKY/WX    TMP DP  RH WIND       PRES   REMARKS
DEFIANCE       FAIR      75  69  81 CALM      30.05R
FINDLAY        FAIR      76  68  76 W6        30.04R
TOLEDO EXPRESS FAIR      76  70  82 SW6       30.03R
TOLEDO EXEC    FAIR      76  70  82 W6        30.03R
LIMA           FAIR      75  71  87 W6        30.06R
$$

OHZ009>014-019>023-028>033-038-089-260300-
   NORTHEAST OHIO

CITY           SKY/WX    TMP DP  RH WIND       PRES   REMARKS
CLE-HOPKINS    FAIR      81  67  62 W6        30.04R
CLE-LAKEFRONT  FAIR      80  73  79 W8        30.00R
CUY CO. ARPT   PTCLDY    81  73  78 W9        30.02R
LORAIN-ELYRIA  FAIR      76  67  73 W6        30.03R
ASHTABULA      FAIR      75  73  93 NW5       30.02R
AKRON-CANTON   MOCLDY    79  71  76 W9        30.04R
WOOSTER        MOCLDY    77  69  76 W9        30.06R
MANSFIELD      MOCLDY    78  69  73 W7        30.07R
YOUNGSTOWN     LGT RAIN  73  71  93 W5        30.03R
$$

OHZ042-051>053-060>062-070>072-077>081-260300-
  SOUTHWEST OHIO

CITY           SKY/WX    TMP DP  RH WIND       PRES   REMARKS
CINC-COVINGTON FAIR      77  73  87 S3        30.08R
CINC-LUNKEN    FAIR      76  75  97 CALM      30.06R
HAMILTON       FAIR      75  73  93 CALM      30.07R
DAYTON         FAIR      78  71  79 W7        30.08R
WRIGHT-PAT AFB FAIR      81  73  76 W5        30.07R
DAYTON GENERAL FAIR      82  72  71 W5        30.07R
WILMINGTON     FAIR      78  73  84 SW3       30.08R
$$

OHZ036-037-039>041-045>050-054>059-063>069-073>076-082>088-260300-
  CENTRAL AND SOUTHEAST OHIO

CITY           SKY/WX    TMP DP  RH WIND       PRES   REMARKS
COLUMBUS       FAIR      81  72  74 W6        30.05R
OSU AIRPORT    FAIR      79  73  82 W3        30.06R
BOLTON FIELD   FAIR      78  73  86 W5        30.07R
RICKENBACK AFB FAIR      78  74  86 SW6       30.05R
NEWARK         FAIR      76  73  91 W3        30.05R
MARION         FAIR      77  69  76 NW6       30.06R
LANCASTER      FAIR      78  73  84 SW3       30.06R
ZANESVILLE     FAIR      80  73  79 SW3       30.05R
NEW PHILLY     FAIR      83  73  72 SW3       30.03S
$$



USA.gov is the U.S. government's official web portal to all federal, state and local government web resources and services.